Location: Unspecified
(29.9680°N, 0.0000°E)
Time: 01:16:30
(UTC+00:00)

A-11 Canister half - Pass Details

Date: 21 June 2019
Orbit: 1526 x 1683 km, 47.3° (Epoch: 18 August)

Event Time Altitude Azimuth Distance (km) Brightness Sun altitude
Rises 03:00:44 0° 214° (SW) 4,801 - -21.4°
Reaches altitude 10° 03:03:56 10° 211° (SSW) 3,796 - -21.0°
Exits shadow 03:07:36 26° 203° (SSW) 2,709 9.7 -20.4°
Maximum altitude 03:13:18 60° 134° (SE) 1,743 9.2 -19.5°
Drops below altitude 10° 03:22:26 10° 57° (ENE) 3,707 12.3 -18.1°
Sets 03:25:30 0° 54° (NE) 4,683 13.3 -17.6°
